Overview Statistics Trail Chart Weather Telemetry Raw packets
 

This is the latest recevied weather packets stored in our database for station/object WA1TYB-13. If no packets are shown the sender has not sent any weather packets the latest 10 day(s).

<< 8 9 10 11 12 13 14 >>
Time Temp. Humidity Pressure Rain* Wind** Luminosity Snow
1788555666 23.33° C 25% 1013.1 hPa 0 mm - 196 W/m² -
1788555361 23.89° C 26% 1013.2 hPa 0 mm - 162 W/m² -
1788555057 24.44° C 27% 1013.2 hPa 0 mm - 687 W/m² -
1788554753 23.89° C 26% 1013.3 hPa 0 mm - 730 W/m² -
1788554449 23.33° C 29% 1013.3 hPa 0 mm - 642 W/m² -
1788554145 23.33° C 28% 1013.3 hPa 0 mm - 339 W/m² -
1788553841 23.33° C 26% 1013.5 hPa 0 mm - 284 W/m² -
1788553537 23.89° C 26% 1013 hPa 0 mm - 302 W/m² -
1788553233 23.89° C 25% 1013.2 hPa 0 mm - 744 W/m² -
1788552927 23.33° C 27% 1013.1 hPa 0 mm - 760 W/m² -
1788552623 23.33° C 26% 1013 hPa 0 mm - 281 W/m² -
1788552321 23.33° C 28% 1013.3 hPa 0 mm - 471 W/m² -
1788552017 22.78° C 28% 1013 hPa 0 mm - 331 W/m² -
1788551715 22.22° C 28% 1013.2 hPa 0 mm - 251 W/m² -
1788551414 22.22° C 28% 1013.1 hPa 0 mm - 153 W/m² -
1788551109 22.78° C 29% 1012.9 hPa 0 mm - 154 W/m² -
1788550804 22.22° C 29% 1013 hPa 0 mm - 229 W/m² -
1788550499 22.22° C 28% 1013.2 hPa 0 mm - 171 W/m² -
1788550195 22.22° C 28% 1013.2 hPa 0 mm - 137 W/m² -
1788549895 22.22° C 29% 1013.3 hPa 0 mm - 164 W/m² -
1788549591 22.78° C 27% 1013 hPa 0 mm - 168 W/m² -
1788549287 22.78° C 27% 1013.2 hPa 0 mm - 763 W/m² -
1788548984 22.22° C 29% 1013 hPa 0 mm - 439 W/m² -
1788548679 22.78° C 28% 1013 hPa 0 mm - 567 W/m² -
1788548375 22.22° C 27% 1012.9 hPa 0 mm - 704 W/m² -

* Rain latest hour (hover to see other rain measurements)
** Current wind speed in m/s (hover to see current wind gust speed)